Find Starlink 11740

NORAD ID: 64382 Int'l Des: 2025-127 Owner: SPXS Country: US Constellation: starlink operational
LEOCIRCULAR

实时位置

正在加载3D地球...

关于 Starlink 11740

正在加载描述...

即将过境

Passes for default location (London). Set your location on the main map for personalized predictions.

高度历史

Loading altitude history...

两行轨道根数

1 64382U 25127N 26105.36310421 .00160783 00000-0 12302-2 0 9999
2 64382 42.9996 223.1645 0001719 266.4161 93.6510 15.70883554 49273
Epoch: Apr 15, 2026 • Age: 35 hours

当前状态

高度 355.1 km
速度 7.70 km/s
星下点 22.42°N, 96.19°E
发射日期 Jun 13, 2025
运行时间 0.8 years
类型 internet

技术详情

分类 Payload
质量 960.00 kg
干质量 910.00 kg
总质量 960.00 kg
长度 0.30 m
直径 4.10 m
跨度 29.00 m
形状 Box + pan
制造商 SPXS
平台类型 Starlink V2MD
阶段状态 In Orbit
所有者/国家 SPXS/US

Most Searched